RH
93 96 75 76 74 70 67 66 69 65 64 64 64 68 76 76 69 74 72 64 52 39 24 18 32 21 18 18 18 18 18 17 17
86 84 98 88 76 57 58 59 62 67 69 67 65 64 63 70 71 69 68 80 78 73 67 54 38 20 19 18 17 16 16 16 16
82 87 90 94 81 77 64 63 58 58 57 60 61 61 61 62 64 70 71 73 73 83 83 79 77 70 56 37 26 22 19 17 16
46 66 81 83 80 70 66 63 62 57 58 59 50 48 43 42 43 50 52 54 68 64 68 73 81 84 79 73 68 59 43 35 28
68 66 58 56 56 59 60 57 51 45 38 38 44 51 51 59 58 45 39 60 64 69 67 59 60 56 55 72 58 63 65 67 63
82 84 83 77 78 78 75 69 62 54 46 44 51 48 47 52 63 65 72 77 79 81 78 81 78 81 81 81 79 77 84 67 72
95 96 96 93 87 86 84 82 80 72 61 59 57 57 51 45 54 65 78 88 84 83 79 77 72 73 83 85 86 85 84 82 82
99 98 99 98 98 97 93 91 90 89 87 84 77 66 54 52 50 49 56 67 80 86 84 82 73 73 72 70 69 74 80 77 70
96 98 100 98 99 97 99 99 100 97 97 95 96 94 90 92 84 68 56 56 64 60 58 52 47 46 46 42 40 44 51 59 67
98 100 99 99 99 98 98 100 100 100 99 99 99 99 98 97 99 100 100 98 98 94 80 89 88 84 78 74 74 70 58 32 28
99 96 100 99 96 86 84 87 83 82 76 76 82 70 60 64 84 90 96 98 100 100 98 98 95 85 86 92 95 94 91 91 80
94 97 94 87 80 74 49 41 38 28 17 12 11 11 9 10 11 11 15 21 22 22 40 71 77 96 90 76 60 54 56 71 84
95 92 84 75 65 32 14 12 11 11 10 10 10 10 9 9 9 8 8 8 8 8 8 8 9 9 8 8 7 7 7 8 9
82 74 54 32 20 14 14 14 14 14 13 12 12 12 12 12 12 12 12 11 11 11 11 11 10 10 10 10 10 9 9 9 9
76 59 30 19 16 15 17 18 18 17 16 15 15 15 15 14 14 14 14 13 13 13 13 12 12 11 11 10 10 10 9 9 9
54 32 22 19 19 22 24 24 22 20 19 18 17 16 16 15 15 15 15 15 14 14 13 12 11 11 11 10 10 10 10 10 11
33 29 27 28 28 30 30 29 27 24 23 21 19 18 17 17 17 17 16 15 14 14 13 13 13 13 12 12 12 12 13 13 13
40 38 36 35 37 38 37 35 32 29 26 24 21 20 19 19 18 17 17 16 16 16 16 15 15 15 15 15 16 16 16 16 17
48 45 44 44 45 45 44 41 37 34 30 26 24 22 22 21 20 20 20 21 22 23 24 23 21 19 19 18 18 19 19 19 19
55 52 50 50 50 50 48 45 41 38 33 29 26 25 24 24 24 24 24 25 25 26 25 24 22 21 20 20 19 19 20 21 22
Wind_Speed
15 20 21 17 16 13 13 13 13 12 11 11 10 9 9 8 8 7 7 7 8 8 7 6 7 7 6 4 2 1 3 4 5
11 9 16 18 23 12 13 11 11 11 10 10 9 9 9 9 8 7 7 7 7 7 7 7 4 4 5 4 3 1 2 3 4
12 13 15 21 20 16 13 12 12 11 10 10 9 9 9 9 9 8 6 4 4 5 4 4 4 3 2 1 1 1 1 2 3
14 15 16 16 16 15 14 14 12 11 11 11 11 10 9 9 9 8 7 6 6 6 6 5 4 2 2 2 1 1 2 2 3
14 14 15 15 14 12 12 12 12 12 12 11 10 9 9 9 8 7 6 7 6 6 6 5 4 3 2 2 1 1 3 4 4
13 14 14 13 13 12 11 11 10 11 11 11 11 10 10 10 9 9 9 9 8 7 6 5 5 4 4 3 3 3 4 3 5
18 16 15 15 14 14 13 12 11 10 10 10 10 10 11 11 11 11 11 8 8 8 8 9 8 5 2 1 2 2 2 1 3
18 20 18 18 18 16 16 15 14 13 12 12 11 12 12 12 12 12 14 13 12 12 13 10 7 6 7 8 8 7 6 5 5
22 19 19 20 18 18 19 21 21 18 16 15 13 13 13 14 13 14 15 16 17 18 14 12 10 11 12 12 11 11 10 11 10
25 20 22 20 20 18 18 18 17 17 19 18 17 17 16 17 17 16 18 17 18 19 17 13 14 14 14 12 11 11 10 10 10
25 25 22 25 20 20 20 21 21 21 21 21 21 21 21 21 21 22 22 20 23 19 17 17 19 19 15 14 15 15 14 13 13
29 27 26 24 23 23 24 23 23 22 21 21 20 19 19 19 19 19 20 21 23 24 23 23 25 24 23 23 22 22 21 20 19
31 29 28 27 26 25 24 23 22 22 22 22 22 21 21 20 20 20 20 21 22 23 22 21 22 23 23 23 22 22 22 21 21
30 29 29 28 27 26 25 24 23 23 23 23 23 23 22 22 21 21 21 21 22 23 23 22 23 23 23 23 23 23 23 23 23
30 30 29 28 28 27 26 26 25 25 24 24 24 23 23 23 23 22 23 23 24 24 24 24 23 23 23 23 23 23 23 23 23
32 31 31 30 29 28 28 27 27 27 26 26 26 25 25 25 25 25 25 25 25 25 25 24 23 23 23 24 24 24 24 24 23
35 34 33 32 31 30 29 28 28 27 27 27 27 27 27 27 27 27 26 26 25 25 25 25 26 26 26 27 27 27 27 27 26
36 35 34 34 33 31 30 30 29 28 28 28 28 28 29 27 27 26 26 26 26 27 27 28 28 29 29 29 29 29 29 29 30
35 35 35 34 33 32 31 30 30 30 29 29 29 29 28 28 27 28 28 28 29 30 31 31 32 32 32 31 31 31 31 31 31
36 35 34 34 33 32 32 31 31 31 30 30 30 30 30 29 29 29 30 31 31 33 34 34 35 35 35 35 34 33 33 33 34
Wind_Direction
197 218 194 169 158 164 166 165 164 163 159 157 155 150 143 140 131 128 125 118 120 127 131 134 140 160 156 164 175 91 50 37 27
177 194 186 186 178 163 171 168 171 170 168 167 165 164 162 159 144 138 140 127 123 122 120 128 136 127 138 144 154 120 54 32 27
174 169 166 178 167 178 171 178 175 177 178 178 180 181 179 175 176 175 165 160 150 150 147 141 136 127 127 135 147 101 70 59 45
172 170 177 178 179 186 187 189 189 191 191 189 190 187 187 190 193 192 191 195 199 205 195 185 174 145 94 70 20 348 349 23 35
185 182 181 181 185 188 188 192 192 194 196 199 208 204 194 187 178 168 161 162 175 190 194 195 188 178 147 95 244 338 19 23 25
192 188 185 186 185 187 191 194 200 197 195 195 198 204 210 204 190 178 170 160 153 154 152 153 153 151 143 125 86 73 72 36 28
205 200 198 194 192 192 196 202 204 203 200 199 199 204 206 212 207 198 197 192 202 212 212 205 196 204 197 109 72 34 51 28 39
218 202 201 202 203 205 208 212 215 215 216 214 211 210 209 213 207 208 216 220 230 231 224 219 229 232 242 252 258 264 273 286 302
214 229 215 211 219 217 218 212 207 208 217 223 229 223 222 220 218 214 216 223 229 238 243 245 240 244 245 251 253 255 259 265 271
233 220 229 234 224 226 226 224 226 222 226 233 236 236 230 233 235 229 230 235 243 250 247 242 249 245 249 256 262 263 267 270 271
224 226 225 229 227 231 236 237 240 241 244 245 243 242 243 240 240 242 241 235 244 244 250 266 272 265 258 257 266 271 269 267 268
224 226 228 230 233 238 239 236 236 237 238 242 243 242 242 242 241 241 244 248 250 256 257 251 257 263 269 270 271 272 271 269 266
226 228 231 233 235 235 233 233 234 238 240 243 244 245 245 245 244 244 245 247 251 258 261 261 260 262 267 271 271 270 271 271 271
228 231 232 231 231 232 233 235 238 240 242 243 245 245 245 246 248 249 250 251 253 256 259 260 261 262 264 266 268 270 271 272 272
230 231 231 232 233 234 237 240 242 243 243 243 244 244 245 245 247 249 251 253 255 258 260 261 262 264 266 267 268 268 269 270 271
230 232 233 235 236 237 239 241 241 242 242 242 242 244 247 249 250 252 252 254 256 258 262 264 265 265 267 269 270 271 272 272 272
230 232 235 237 238 240 242 243 244 243 241 241 242 243 244 246 249 250 251 251 252 254 258 262 265 267 267 268 269 271 272 274 274
231 233 235 237 238 240 241 243 243 244 244 244 245 246 246 248 248 248 249 251 254 255 257 259 261 264 266 268 270 272 273 274 275
235 235 236 238 240 242 243 244 244 244 245 246 248 249 251 250 250 251 253 255 258 261 263 264 265 267 268 269 270 271 273 274 276
236 238 240 241 242 243 244 245 247 247 247 248 249 249 250 251 254 256 258 261 263 264 266 268 268 269 270 270 271 272 274 276 278